Guantanamo Bay NAS, Cuba

1:38 PM CDT on October 15, 2018 (GMT -0400)
Guantanamo Bay Naval Air Station

Weather History for MUGM - May, 2018

Change the Weather History Date:

Wednesday, May 16, 2018

  Actual Average Record
Temperature  
Mean Temperature 80 °F -  
Max Temperature 88 °F 86 °F 93 °F (2015)
Min Temperature 73 °F 74 °F 70 °F (2001)
Cooling Degree Days 15    
Growing Degree Days 30 (Base 50)    
Moisture  
Dew Point 77 °F    
Average Humidity 88    
Maximum Humidity 100    
Minimum Humidity 74    
Precipitation  
Precipitation 0.06 in - - ()
Sea Level Pressure  
Sea Level Pressure 29.97 in    
Wind  
Wind Speed 7 mph ()    
Max Wind Speed 15 mph    
Max Gust Speed -    
Visibility 6.2 miles    
Events Rain    
Averages and records for this station are not official NWS values.
T = Trace of Precipitation, MM = Missing Value Source: Averaged Metar Reports

Daily Weather History Graph

Daily Weather History Graph

Search for Another Location

Airport or City:

Astronomy

May. 16, 2018 Rise Set
Actual Time 6:24 AM CDT 7:30 PM CDT
Civil Twilight 6:00 AM CDT 7:53 PM CDT
Nautical Twilight 5:32 AM CDT 8:21 PM CDT
Astronomical Twilight 5:04 AM CDT 8:50 PM CDT
Moon 7:30 AM CDT (5/16) 8:55 PM CDT (5/16)
Length of Visible Light 13h 52m
Length of Day
13h 05m
New Moon, 2% of the Moon is Illuminated
May 16
New Moon
May 21
First Quarter
May 29
Full
Jun 6
Last Quarter
Jun 13
New

Hourly Weather History & Observations

Time (CDT) Temp. Heat Index Dew Point Humidity Pressure Visibility Wind Dir Wind Speed Gust Speed Precip Events Conditions
12:56 AM 75.9 °F - 75.9 °F 100% 29.99 in 6.2 mi NNW 6.9 mph - N/A   Partly Cloudy
1:56 AM 75.9 °F - 75.9 °F 100% 29.97 in 6.2 mi NNW 5.8 mph - N/A   Partly Cloudy
2:56 AM 75.0 °F - 75.0 °F 100% 29.95 in 6.2 mi NNW 5.8 mph - N/A   Partly Cloudy
3:56 AM 75.0 °F - 75.0 °F 100% 29.94 in 6.2 mi North 4.6 mph - N/A   Partly Cloudy
4:56 AM 75.0 °F - 75.0 °F 100% 29.93 in 6.2 mi NNW 8.1 mph - N/A   Scattered Clouds
5:56 AM 73.9 °F - 73.9 °F 100% 29.95 in 6.2 mi North 9.2 mph - 0.00 in   Scattered Clouds
6:56 AM 77.0 °F - 77.0 °F 100% 29.97 in 6.2 mi North 9.2 mph - 0.06 in   Scattered Clouds
7:56 AM 79.0 °F - 78.1 °F 97% 29.97 in 6.2 mi North 6.9 mph - N/A   Scattered Clouds
8:56 AM 81.0 °F 87.3 °F 75.9 °F 85% 29.99 in 6.2 mi NNE 5.8 mph - N/A   Mostly Cloudy
9:56 AM 82.9 °F 92.8 °F 78.1 °F 85% 30.00 in 6.2 mi North - - 0.00 in Rain Light Rain
10:56 AM 84.9 °F 95.3 °F 77.0 °F 77% 30.00 in 6.2 mi ENE 3.5 mph - 0.00 in   Mostly Cloudy
11:56 AM 84.9 °F 97.5 °F 79.0 °F 82% 29.99 in 6.2 mi SE 10.4 mph - N/A   Mostly Cloudy
12:56 PM 87.1 °F 101.5 °F 79.0 °F 77% 29.98 in 6.2 mi SE 13.8 mph - N/A   Mostly Cloudy
1:56 PM 87.1 °F 99.8 °F 78.1 °F 74% 29.96 in 6.2 mi SE 15.0 mph - N/A   Mostly Cloudy
2:56 PM 87.1 °F 99.8 °F 78.1 °F 74% 29.94 in 6.2 mi SE 12.7 mph - N/A   Mostly Cloudy
3:56 PM 86.0 °F 98.3 °F 78.1 °F 77% 29.94 in 6.2 mi SSE 11.5 mph - N/A   Mostly Cloudy
4:56 PM 86.0 °F 98.3 °F 78.1 °F 77% 29.93 in 6.2 mi SE 11.5 mph - N/A   Mostly Cloudy
5:56 PM 84.9 °F 96.6 °F 78.1 °F 80% 29.94 in 6.2 mi SE 11.5 mph - N/A   Mostly Cloudy
6:56 PM 84.0 °F 93.7 °F 77.0 °F 79% 29.95 in 6.2 mi NNE 5.8 mph - N/A   Mostly Cloudy
7:56 PM 82.0 °F 90.2 °F 77.0 °F 85% 29.96 in 6.2 mi NNE 4.6 mph - N/A   Mostly Cloudy
8:56 PM 80.1 °F 85.4 °F 75.9 °F 87% 29.98 in 6.2 mi NNW 5.8 mph - N/A   Mostly Cloudy
9:56 PM 79.0 °F - 77.0 °F 94% 29.99 in 6.2 mi NNW 6.9 mph - N/A   Scattered Clouds
10:56 PM 78.1 °F - 77.0 °F 96% 29.99 in 6.2 mi NNW 5.8 mph - N/A   Scattered Clouds
11:56 PM 77.0 °F - 75.9 °F 96% 30.00 in 6.2 mi NNW 4.6 mph - N/A   Scattered Clouds